sat.trackr.live / text

‹ back to catalog

STARLINK-6150

NORAD 57119 · 2023-090U

PAYLOAD ACTIVE UNKNOWN

§ Identity

Operator
Country
US
Launch date
2023-06-23
Launch site
AFETR
Launch vehicle
Mass (kg)
RCS (m²)

Purposes: comms

External: N2YO · Heavens-Above · Gunter

§ Orbital elements

Epoch: 2026-05-25T05:11:37.919904Z

Period
94.27 min
Inclination
43.0007°
Eccentricity
0.0001363
Mean motion
15.27556692 rev/d
Perigee alt
482.2 km
Apogee alt
484.1 km
Semi-major
6,861.3 km
B*
-1.3557e-4
RAAN
209.5793°
Arg perigee
286.6023°
Mean anomaly
73.4678°
Rev number
16,203

§ Raw data

STARLINK-61501 57119U 23090U   26145.21641111 -.00003988  00000+0 -13557-3 0  99952 57119  43.0007 209.5793 0001363 286.6023  73.4678 15.27556692162039

JSON: /api/v1/satellites/57119 · /tle

For live sub-satellite position, see the globe view (requires WebGL).

§ Visibility from observer

Set your observer location to see the next 7 days of passes ≥ 10°. The values pass through the URL so the page stays shareable.

No JS? Fill the form by hand. The geolocation button needs JavaScript.